sat.trackr.live / text

‹ back to catalog

ONEWEB-0506

NORAD 54124 · 2022-138M

PAYLOAD ACTIVE UNKNOWN

§ Identity

Operator
Country
UK
Launch date
2022-10-22
Launch site
SRILR
Launch vehicle
Mass (kg)
RCS (m²)

Purposes: comms

External: N2YO · Heavens-Above · Gunter

§ Orbital elements

Epoch: 2026-09-20T00:32:21.616224Z

Period
109.11 min
Inclination
87.9110°
Eccentricity
0.0001982
Mean motion
13.19725719 rev/d
Perigee alt
1,184.3 km
Apogee alt
1,187.3 km
Semi-major
7,563.9 km
B*
1.4934e-4
RAAN
286.0740°
Arg perigee
82.4849°
Mean anomaly
277.6509°
Rev number
18,931

§ Raw data

ONEWEB-05061 54124U 22138M   26263.02247241  .00000073  00000+0  14934-3 0  99962 54124  87.9110 286.0740 0001982  82.4849 277.6509 13.19725719189319

JSON: /api/v1/satellites/54124 · /tle

For live sub-satellite position, see the globe view (requires WebGL).

§ Visibility from observer

Set your observer location to see the next 7 days of passes ≥ 10°. The values pass through the URL so the page stays shareable.

No JS? Fill the form by hand. The geolocation button needs JavaScript.